This demonstration page uses our WeatherBlox Daily Observations layout. Learn more.

Hourly Observations for December 19, 2017

Temp ( °F °C ) Dew Point ( °F °C ) Humidity (%) Winds ( mph kmh ) Pressure ( in mb ) Visibility ( mi km ) Precip ( " mm )
12:53 am 00:53 Cloudy 47 8.3 43 6.1 86 86 WSW 8 13 30.06 1018 10 16.0934 0 0
1:53 am 01:53 Cloudy 47 8.3 42 5.6 83 83 SW 7 11 30.06 1018 10 16.0934 0 0
2:53 am 02:53 Cloudy 47 8.3 42 5.6 83 83 SW 13 20 30.07 1018 10 16.0934 0 0
3:53 am 03:53 Cloudy 47 8.3 41 5 80 80 WSW 9 15 30.07 1018 10 16.0934 0 0
4:53 am 04:53 Cloudy 47 8.3 41 5 80 80 SW 8 13 30.05 1018 10 16.0934 0 0
5:53 am 05:53 Cloudy 47 8.3 41 5 80 80 VRB 7 11 30.06 1018 10 16.0934 0 0
6:53 am 06:53 Cloudy 46 7.8 41 5 83 83 SW 5 7 30.06 1018 10 16.0934 0 0
7:53 am 07:53 Cloudy 46 7.8 41 5 83 83 SW 7 11 30.06 1018 10 16.0934 0 0
8:53 am 08:53 Cloudy 46 7.8 41 5 83 83 SW 8 13 30.07 1018 8 12.87472 0 0
9:53 am 09:53 Cloudy 47 8.3 41 5 80 80 WSW 9 15 30.07 1018 9 14.48406 0 0
10:53 am 10:53 Cloudy 49 9.4 42 5.6 77 77 SW 13 20 30.06 1018 9 14.48406 0 0
11:53 am 11:53 Cloudy 47 8.3 41 5 80 80 WSW 10 17 30.05 1018 8 12.87472 0 0
12:53 pm 12:53 Cloudy 47 8.3 41 5 80 80 SW 8 13 30.02 1017 8 12.87472 0 0
1:44 pm 13:44 Cloudy 48 8.9 41 5 77 77 WSW 8 13 30.06 1018 8 12.87472 0 0
1:53 pm 13:53 Cloudy 48 8.9 41 5 77 77 SW 8 13 30.02 1017 8 12.87472 0 0
2:53 pm 14:53 Cloudy 49 9.4 42 5.6 77 77 WSW 8 13 30.02 1017 9 14.48406 0 0
3:53 pm 15:53 Mostly Cloudy 49 9.4 42 5.6 77 77 SW 8 13 30.01 1016 8 12.87472 0 0
4:04 pm 16:04 Partly Cloudy 49 9.4 42 5.6 77 77 WSW 10 17 30.03 1017 8 12.87472 0 0
4:53 pm 16:53 Mostly Sunny 48 8.9 42 5.6 80 80 W 6 9 30.01 1016 7 11.26538 0 0
5:35 pm 17:35 Mostly Cloudy 48 8.9 42 5.6 80 80 W 6 9 30.03 1017 8 12.87472 0 0
5:53 pm 17:53 Cloudy 48 8.9 42 5.6 80 80 W 7 11 30.03 1017 8 12.87472 0 0
6:53 pm 18:53 Cloudy 48 8.9 43 6.1 83 83 W 6 9 30.06 1018 7 11.26538 0 0
7:53 pm 19:53 Cloudy 48 8.9 43 6.1 83 83 W 6 9 30.07 1018 7 11.26538 0 0
8:53 pm 20:53 Partly Cloudy with Mist and Fog 46 7.8 42 5.6 86 86 W 5 7 30.08 1019 6 9.65604 0 0
9:53 pm 21:53 Clear with Mist and Fog 44 6.7 41 5 89 89 W 3 6 30.08 1019 6 9.65604 0 0
10:53 pm 22:53 Clear with Mist and Fog 39 3.9 38 3.3 96 96 Calm 30.08 1019 4 6.43736 0 0
11:44 pm 23:44 Clear with Mist and Fog 38 3.3 37 2.8 97 97 Calm 30.09 1019 2.5 4.02335 0 0
11:53 pm 23:53 Clear with Mist and Fog 38 3.3 38 3.3 100 100 WNW 3 6 30.08 1019 3 4.82802 0 0

Powered by AerisWeather